RH
11 11 10 10 9 8 7 6 6 6 7 8 9 9 9 8 8 8 9 10 10 11 10 9 8 8 12 27 20 13 12 11 11 10 11 18 21 24 28 30 29 35 37 36 36 32 39
12 12 12 11 10 9 7 7 6 6 6 6 7 8 9 8 8 8 9 10 11 12 11 10 9 10 16 25 25 18 15 12 12 13 12 19 22 25 28 33 33 37 38 38 36 36 37
20 18 17 15 12 10 8 7 7 7 7 7 7 7 8 9 9 8 9 10 11 13 14 11 10 11 17 19 20 16 16 15 13 15 15 18 25 25 27 34 34 34 42 38 36 35 40
25 26 25 22 15 10 8 7 7 8 8 7 8 8 9 9 9 8 8 10 12 14 14 13 16 22 22 18 16 17 16 18 16 15 16 25 27 26 28 32 31 34 36 36 36 40 41
14 14 14 16 16 11 9 7 7 8 8 8 8 8 9 10 9 8 8 10 12 15 16 16 16 24 26 19 20 18 17 18 17 16 18 25 26 28 27 35 34 37 27 34 34 42 47
30 23 16 12 11 10 9 9 8 7 8 9 9 9 9 9 10 9 9 10 12 15 16 20 25 28 27 27 23 23 20 19 19 17 20 22 22 36 40 29 22 28 33 28 32 48 45
67 57 39 26 15 10 9 9 10 8 8 9 10 10 9 9 9 9 9 10 15 25 20 20 28 29 30 29 25 26 22 19 24 28 28 30 27 30 30 31 22 27 24 20 23 45 49
92 87 68 56 30 19 12 10 10 10 10 9 9 10 10 9 9 9 9 11 14 20 24 22 24 30 30 27 31 28 26 27 28 32 29 26 32 24 27 30 23 21 22 24 30 45 48
88 96 88 70 66 36 20 15 12 11 10 11 11 10 10 10 9 9 10 11 12 16 38 34 33 33 30 28 35 34 30 34 35 34 29 23 25 32 30 30 28 28 29 28 27 32 37
96 100 98 88 78 68 44 32 22 16 13 12 12 12 11 10 10 13 11 12 12 12 38 30 36 37 30 35 37 28 32 35 32 37 34 32 32 31 32 32 29 28 28 25 28 30 38
99 100 100 99 96 84 74 57 48 32 22 16 15 14 12 11 9 10 12 12 13 25 43 34 44 35 37 36 41 37 25 27 32 33 30 27 36 37 35 32 29 29 29 30 31 39 38
71 88 96 100 100 99 92 85 67 59 39 24 18 15 14 12 10 10 11 14 19 47 35 43 38 35 32 35 32 32 29 28 30 29 27 30 32 34 32 39 34 35 34 46 57 52 65
58 87 99 100 100 100 99 99 93 77 67 46 26 18 15 12 10 11 13 20 41 58 27 39 44 39 33 34 36 32 31 28 28 32 29 30 32 37 35 35 36 32 28 49 57 70 55
26 49 90 94 99 100 99 98 100 97 86 76 50 27 17 13 10 10 13 30 29 29 34 34 39 37 34 37 33 34 36 36 35 32 50 49 48 41 36 32 35 33 28 55 42 57 52
27 38 55 65 88 94 92 95 98 100 99 94 83 51 26 16 10 12 20 44 39 34 34 42 33 34 37 34 29 33 38 38 34 34 28 45 29 34 32 32 35 44 48 37 40 45 54
30 38 80 95 96 98 100 98 100 100 100 100 100 76 45 22 12 17 37 38 30 34 34 33 32 30 34 41 35 36 35 32 37 36 29 29 30 34 33 29 32 40 36 48 52 46 47
36 32 34 57 87 89 71 73 80 73 99 100 100 75 44 30 20 32 43 35 26 28 28 31 31 31 30 39 38 38 30 31 38 40 31 30 30 31 30 39 42 44 44 42 45 49 52
54 44 37 30 42 58 57 90 79 61 98 100 100 90 63 41 41 39 46 34 25 41 39 41 34 30 36 36 36 34 32 30 34 33 37 32 32 40 33 25 23 35 42 39 52 41 53
83 71 55 44 28 34 63 73 88 99 75 100 100 93 74 57 58 46 44 39 35 46 46 46 42 38 28 32 28 34 33 40 36 36 35 36 36 43 36 36 30 29 33 41 47 55 49
83 86 70 58 42 28 50 68 97 100 93 100 100 100 96 79 83 61 54 42 41 43 40 40 41 38 36 33 32 36 44 41 38 36 36 27 38 38 56 42 38 32 31 39 43 71 40
74 86 90 70 54 44 34 50 95 100 96 93 100 98 92 99 97 84 86 92 72 46 46 42 44 44 40 42 40 41 51 48 41 44 42 36 40 43 40 38 36 35 33 38 42 36 42
75 71 85 88 74 53 45 44 65 100 100 100 95 98 96 97 94 92 97 99 96 84 74 73 66 54 48 55 43 47 53 53 42 53 43 43 45 47 42 41 48 50 45 40 34 31 39
61 81 80 91 85 70 56 49 44 96 99 99 97 98 99 98 98 100 97 90 96 94 96 92 91 91 99 88 86 86 67 56 49 51 47 46 48 52 48 44 39 49 49 47 43 52 47
63 83 77 88 94 85 67 58 53 83 100 94 72 88 100 100 98 98 95 90 98 99 100 99 100 99 100 99 95 83 85 63 60 49 45 52 48 60 77 48 72 60 70 74 66 78 86
64 90 89 85 82 93 84 71 68 69 100 98 100 93 96 100 99 96 97 98 100 100 100 99 98 99 98 96 97 97 90 85 43 47 43 45 50 90 94 73 55 66 70 72 54 48 84
74 87 90 94 93 96 89 89 81 72 77 88 99 96 98 94 96 92 97 99 98 98 97 99 98 98 87 98 97 96 93 78 51 52 44 44 57 80 77 80 92 74 57 56 49 52 77
78 96 94 89 87 88 87 92 94 86 76 90 90 100 100 98 97 99 99 97 99 99 98 98 98 97 97 97 95 94 94 45 82 55 62 57 59 69 88 95 88 77 55 48 52 66 69
58 87 100 98 90 96 95 86 100 96 85 79 98 99 100 100 100 98 100 100 100 100 96 98 97 97 97 96 96 94 95 80 52 51 58 56 75 92 91 96 91 55 56 45 58 70 58
43 44 61 70 89 94 93 87 91 94 84 77 100 99 100 100 99 99 100 99 99 100 98 98 98 96 96 96 97 97 96 95 72 94 44 68 74 82 74 73 67 50 48 43 42 52 57
Wind_Speed
1 3 4 3 4 5 5 6 6 6 6 7 7 7 8 8 9 10 9 8 8 7 6 4 4 5 4 3 3 3 2 2 2 2 2 2 1 2 3 3 3 4 3 6 8 12 15
5 3 4 7 6 6 6 6 6 7 7 7 7 8 8 8 9 10 9 8 7 7 6 5 4 5 4 2 4 5 3 2 2 3 3 4 2 4 5 4 3 4 9 10 4 7 8
9 9 7 6 9 9 7 7 6 6 6 7 8 8 9 9 9 10 9 8 7 6 5 4 3 4 5 6 5 4 3 2 2 2 3 4 5 2 5 5 7 10 5 2 3 5 4
10 10 14 11 9 9 11 8 7 7 7 7 8 9 9 9 9 10 9 9 7 6 5 3 3 4 4 4 4 3 2 2 1 3 4 5 6 5 3 11 5 4 4 3 2 6 4
7 10 10 12 14 11 10 10 10 9 7 7 8 9 10 10 10 9 9 9 8 6 4 4 4 4 4 3 2 3 2 1 2 3 5 5 5 4 5 5 4 6 2 3 2 9 5
8 8 10 12 11 15 12 10 11 10 10 8 7 8 9 10 10 9 8 7 6 5 5 4 6 4 4 2 2 2 3 2 2 5 5 2 3 4 3 4 5 6 4 3 4 6 3
14 13 10 11 13 13 14 14 11 11 11 11 10 8 8 9 10 9 8 6 4 4 5 5 3 4 3 4 2 2 2 3 4 2 2 2 4 5 9 6 3 5 3 4 3 5 5
18 18 17 12 13 13 14 14 14 12 12 11 12 11 9 8 9 9 7 4 4 4 6 9 8 7 6 4 2 2 3 3 3 2 3 5 4 5 3 5 4 3 2 4 2 2 5
16 18 18 17 15 14 14 14 14 14 12 12 12 12 11 9 8 8 6 3 3 3 3 4 7 5 3 5 3 4 4 4 3 4 4 5 2 4 3 2 3 1 4 3 3 2 2
19 17 18 19 16 15 16 16 15 15 14 13 13 12 11 10 7 5 4 2 2 3 4 3 3 3 4 4 1 3 5 3 1 8 6 4 0 3 2 3 5 3 3 2 3 3 3
17 19 17 19 20 17 17 16 16 16 16 14 13 12 10 9 7 5 4 2 1 1 3 2 3 4 5 3 2 1 2 2 3 4 5 4 4 3 2 2 3 3 3 3 3 3 3
24 22 21 19 20 20 19 19 18 16 15 15 14 12 10 9 8 6 3 3 3 6 6 3 4 3 3 2 2 3 2 2 3 2 2 0 1 1 2 3 2 5 5 6 5 3 1
19 20 19 18 21 19 21 21 21 18 16 15 15 14 11 9 6 5 5 5 4 4 1 4 4 4 3 5 2 4 3 2 5 4 4 1 2 1 2 4 2 4 5 3 3 2 5
21 21 21 21 19 20 21 21 23 23 19 17 16 14 13 10 8 8 8 4 4 5 6 3 4 3 6 7 2 4 4 3 4 3 3 5 5 5 1 2 5 5 6 5 6 3 3
21 20 21 22 24 23 22 23 21 25 23 20 17 16 15 11 11 11 12 3 7 7 5 10 3 4 5 4 4 4 6 6 8 10 9 5 4 1 1 1 3 5 4 2 3 2 2
22 22 22 19 17 21 21 19 21 20 27 23 19 15 16 11 14 14 2 7 7 4 4 2 10 7 8 7 7 7 8 4 5 7 2 6 2 1 1 1 2 3 4 3 2 2 5
25 24 25 26 25 23 22 23 24 28 26 24 17 6 7 14 16 11 5 8 7 11 12 8 7 6 7 7 8 6 7 3 5 5 4 5 3 1 2 7 8 3 3 2 3 4 5
24 24 24 25 26 26 22 20 21 24 27 26 14 2 8 16 5 5 4 7 5 6 10 6 3 7 9 8 8 6 11 5 16 16 9 7 5 5 7 1 1 1 6 6 5 5 3
22 23 22 22 22 22 22 16 21 24 24 24 6 6 15 20 4 5 4 5 5 5 6 8 8 7 5 9 4 8 6 2 12 9 9 8 3 1 5 1 1 5 5 4 4 3 7
22 22 22 21 21 20 19 17 18 13 11 23 4 2 3 14 5 3 0 4 5 6 3 5 3 4 4 6 5 6 6 2 6 6 4 7 4 6 7 4 5 5 6 6 6 4 5
27 21 21 20 20 20 20 18 15 15 19 15 5 3 5 4 7 7 3 2 4 3 4 5 1 5 6 7 5 6 3 2 2 4 3 3 7 4 3 3 3 5 5 8 11 13 9
26 27 21 20 18 18 20 20 16 14 14 18 7 2 5 2 3 10 10 8 10 7 2 4 2 5 2 3 1 4 5 3 4 1 5 1 1 3 3 2 5 6 8 10 14 12 12
25 26 24 20 18 17 17 17 17 17 17 8 11 7 6 4 4 3 5 7 9 10 9 10 2 1 5 6 3 3 2 1 5 7 8 6 5 3 4 3 5 9 13 19 7 3 6
26 24 27 20 19 17 16 15 14 17 19 20 17 13 4 4 5 4 4 9 9 8 2 4 6 5 3 12 13 4 8 9 6 4 1 5 5 2 0 2 3 2 1 2 3 2 3
24 18 21 20 21 18 16 14 12 13 17 20 17 17 8 3 6 4 8 3 3 5 6 4 5 6 16 3 3 4 1 1 3 2 0 0 4 2 3 4 6 2 4 5 5 5 6
23 21 21 20 18 16 16 15 14 13 13 22 22 19 15 3 8 8 3 7 3 2 1 3 5 14 9 3 2 5 6 4 4 2 3 2 3 6 3 4 7 4 2 4 3 4 12
24 22 22 25 26 25 23 18 17 15 14 20 24 21 14 6 7 9 5 4 7 4 1 4 5 6 5 1 2 3 3 1 5 6 5 4 2 12 7 4 7 3 8 6 6 5 18
21 20 21 21 26 28 27 24 19 17 17 18 23 25 18 7 8 10 10 4 5 6 4 9 5 2 3 4 3 3 3 5 3 3 5 6 8 4 4 4 9 12 7 6 4 11 23
17 14 14 15 16 18 21 24 21 19 19 20 25 20 19 13 2 9 9 9 8 6 6 17 2 4 7 3 2 2 2 1 2 2 1 4 4 5 7 3 1 22 1 5 11 23 20
Wind_Direction
348 340 338 358 357 356 356 353 344 340 338 335 335 335 337 341 337 340 345 343 332 329 317 296 261 247 237 266 261 291 286 280 231 221 222 204 141 101 107 88 83 82 122 72 106 117 109
303 304 320 323 326 333 339 342 338 334 330 326 326 324 326 330 331 335 334 335 329 325 316 297 264 238 251 271 272 287 283 277 249 217 204 193 172 116 104 69 73 107 105 115 105 111 122
306 303 300 303 311 313 317 323 328 324 321 319 323 322 320 321 325 327 324 325 323 313 308 293 258 244 261 255 277 270 257 260 242 195 173 169 156 133 126 95 111 126 86 85 149 156 138
298 301 304 297 297 301 306 306 309 315 319 319 314 314 315 316 320 321 320 317 314 301 294 274 243 261 265 249 246 285 252 227 213 179 165 150 137 118 84 118 59 68 59 134 199 155 148
316 305 294 298 298 294 295 297 302 305 311 313 312 311 312 313 315 320 317 313 309 295 287 260 257 267 266 237 258 293 305 244 157 160 155 146 140 94 118 89 32 12 199 193 240 196 142
318 314 309 303 293 297 293 292 293 298 302 302 304 304 309 310 312 317 316 310 303 295 269 262 248 270 248 233 269 288 271 199 148 143 128 133 80 71 46 87 209 198 206 223 218 203 160
322 316 311 305 300 293 291 294 293 293 294 297 298 299 303 308 310 312 314 309 292 270 240 232 236 249 253 246 265 280 233 175 142 127 128 47 88 206 211 190 152 146 175 200 232 167 142
321 316 313 312 303 295 289 286 290 290 291 293 296 299 300 306 305 305 305 297 280 261 298 243 240 239 242 227 250 233 189 169 149 164 116 28 230 214 165 181 191 211 188 241 308 130 168
301 309 303 307 312 304 293 287 285 286 286 288 292 294 298 301 301 294 288 303 286 281 268 241 221 224 209 202 217 211 196 169 148 146 176 166 253 142 144 145 155 252 194 213 204 99 153
292 295 300 294 299 305 302 297 291 286 284 285 286 291 293 298 297 286 277 287 282 295 49 239 212 211 187 176 255 191 182 181 161 190 165 229 186 152 139 193 137 222 196 139 142 101 228
287 288 294 292 293 292 296 298 297 294 288 281 282 285 289 285 280 291 293 268 238 348 358 154 176 168 173 172 149 166 170 171 180 174 112 251 164 155 166 213 164 224 62 59 48 85 31
278 277 277 285 288 289 289 293 292 295 294 285 276 274 278 273 270 272 236 182 139 47 256 181 147 164 128 173 158 140 155 121 114 111 50 263 94 105 141 76 70 140 74 45 51 77 323
290 276 272 269 269 281 286 284 285 287 291 291 281 270 263 262 251 233 201 163 46 152 290 202 199 169 167 177 189 174 156 165 168 111 222 336 205 119 132 118 44 81 75 320 338 357 228
278 277 273 270 276 271 275 282 284 279 278 282 284 277 262 249 235 208 172 39 210 223 210 131 136 113 189 158 206 161 138 232 214 113 122 171 293 171 349 180 175 177 159 171 239 218 254
270 274 274 271 264 273 274 271 278 280 271 271 274 272 263 243 221 204 160 142 218 213 178 149 91 168 226 203 168 156 204 210 201 176 179 160 258 169 125 153 146 180 189 175 113 54 49
266 263 265 266 271 268 269 273 266 279 272 265 259 263 253 234 207 189 115 216 216 211 133 153 184 168 191 195 163 174 187 193 204 198 161 200 178 219 159 115 32 166 161 84 14 245 260
268 266 261 262 263 263 271 269 282 299 277 265 257 247 235 205 184 179 195 230 229 215 187 175 215 187 212 182 186 202 200 193 172 163 163 144 132 149 84 205 184 155 198 70 121 166 204
280 273 269 268 266 268 267 262 271 280 284 263 234 197 185 178 168 201 197 199 221 198 199 232 195 208 188 178 188 218 206 224 171 153 169 193 145 187 197 133 351 254 205 162 151 215 235
287 287 281 276 270 266 264 261 265 259 273 247 224 188 183 181 205 222 261 264 237 162 199 188 217 205 182 185 214 199 198 120 166 164 163 180 200 88 326 17 20 220 200 147 99 76 196
271 283 286 280 272 270 266 258 267 265 288 248 218 198 170 193 233 197 164 267 257 225 252 200 209 145 147 210 243 210 175 179 180 190 177 152 172 189 194 162 127 192 199 184 154 148 221
266 270 283 284 277 269 266 265 256 278 268 265 275 268 194 181 229 216 115 13 291 291 233 211 207 229 198 198 179 198 118 98 36 189 132 165 212 175 247 200 178 205 191 180 206 219 204
269 256 268 280 281 275 267 264 261 255 235 222 229 246 301 241 138 179 198 207 209 248 327 266 234 13 221 217 253 143 132 169 195 114 163 178 222 112 300 7 223 245 220 223 223 232 255
267 253 250 269 275 276 271 264 257 238 233 221 219 271 238 208 178 188 201 212 204 164 222 228 183 251 248 272 351 11 164 99 148 164 178 159 145 127 259 342 318 278 205 218 232 197 222
285 259 243 253 267 270 270 268 260 229 240 229 244 245 226 264 214 203 221 209 217 200 204 179 199 189 157 129 115 107 62 75 102 30 108 151 140 128 13 22 254 287 253 157 218 214 130
280 269 244 246 258 268 265 266 262 251 229 243 238 229 227 258 235 235 234 202 208 213 201 197 193 173 140 121 106 144 97 24 187 65 17 311 145 148 184 210 302 263 203 171 162 275 179
266 257 244 243 247 252 257 261 262 255 247 231 248 226 225 190 233 239 190 188 196 186 228 155 158 166 165 191 164 208 196 174 181 186 357 110 75 180 159 213 232 245 187 156 127 296 181
264 257 250 235 246 248 251 254 258 256 244 234 236 241 242 246 234 195 215 207 169 168 106 132 140 138 157 197 187 191 215 26 181 186 169 138 134 214 206 233 285 195 148 137 93 254 164
259 258 257 255 241 246 245 239 249 253 246 240 238 238 242 232 226 214 228 207 169 180 162 147 118 162 149 194 218 195 199 210 181 139 174 164 156 183 169 206 269 149 118 176 180 140 163
256 261 263 262 255 244 229 229 241 246 243 242 231 234 244 242 210 225 239 244 240 216 183 174 172 155 167 176 221 186 189 82 103 223 229 206 188 176 195 208 40 178 58 177 158 156 168